• In Belarus
  • List of Countries
  • For 7 days
  • Water Temperature
  • Satellite Maps
  • Weather Map
  • Weather Widgets
  • user-avatar
    Login

    Hourly Weather Jugi

    Today, 15 November, Thursday

    Time Temperature Precipitation Wind Pressure Humidity
    00:00 +6°C° 0 mm 2 mps 761 mmHg 94%
    01:00 +5°C° 0 mm 2 mps 761 mmHg 95%
    02:00 +5°C° 0 mm 2 mps 761 mmHg 96%
    03:00 +5°C° 0 mm 2 mps 761 mmHg 96%
    04:00 +5°C° 0 mm 2 mps 762 mmHg 96%
    05:00 +5°C° 0 mm 2 mps 762 mmHg 96%
    06:00 +4°C° 0 mm 2 mps 762 mmHg 96%
    07:00 +4°C° 0 mm 2 mps 762 mmHg 96%
    08:00 +5°C° 0 mm 2 mps 762 mmHg 92%
    09:00 +6°C° 0 mm 2 mps 763 mmHg 89%
    10:00 +7°C° 0 mm 3 mps 763 mmHg 85%
    11:00 +8°C° 0 mm 3 mps 763 mmHg 82%
    12:00 +8°C° 0 mm 3 mps 763 mmHg 78%
    13:00 +9°C° 0 mm 3 mps 763 mmHg 75%
    14:00 +8°C° 0 mm 3 mps 763 mmHg 79%
    15:00 +7°C° 0 mm 3 mps 764 mmHg 84%
    16:00 +5°C° 0 mm 3 mps 764 mmHg 88%
    17:00 +5°C° 0 mm 3 mps 764 mmHg 87%
    18:00 +5°C° 0 mm 3 mps 764 mmHg 87%
    19:00 +5°C° 0 mm 3 mps 765 mmHg 86%
    20:00 +5°C° 0 mm 3 mps 765 mmHg 83%
    21:00 +5°C° 0 mm 3 mps 765 mmHg 80%
    22:00 +5°C° 0 mm 3 mps 766 mmHg 77%
    23:00 +4°C° 0 mm 3 mps 766 mmHg 76%

    Tomorrow, 16 November, Friday

    Time Temperature Precipitation Wind Pressure Humidity
    00:00 +4°C° 0 mm 3 mps 766 mmHg 76%
    01:00 +4°C° 0 mm 3 mps 767 mmHg 76%
    02:00 +3°C° 0 mm 3 mps 767 mmHg 77%
    03:00 +3°C° 0 mm 3 mps 767 mmHg 78%
    04:00 +2°C° 0 mm 3 mps 767 mmHg 79%
    05:00 +2°C° 0 mm 3 mps 767 mmHg 79%
    06:00 +2°C° 0 mm 3 mps 768 mmHg 79%
    07:00 +3°C° 0 mm 2 mps 768 mmHg 79%
    08:00 +3°C° 0 mm 3 mps 768 mmHg 77%
    09:00 +3°C° 0 mm 3 mps 769 mmHg 74%
    10:00 +4°C° 0 mm 3 mps 769 mmHg 72%
    11:00 +4°C° 0 mm 3 mps 769 mmHg 71%
    12:00 +4°C° 0 mm 3 mps 769 mmHg 70%
    13:00 +5°C° 0 mm 3 mps 769 mmHg 69%
    14:00 +4°C° 0 mm 3 mps 769 mmHg 72%
    15:00 +4°C° 0 mm 2 mps 769 mmHg 76%
    16:00 +4°C° 0 mm 2 mps 769 mmHg 79%
    17:00 +3°C° 0 mm 2 mps 769 mmHg 81%
    18:00 +3°C° 0 mm 2 mps 769 mmHg 83%
    19:00 +1°C° 0 mm 3 mps 769 mmHg 85%
    20:00 +2°C° 0 mm 2 mps 769 mmHg 86%
    21:00 +2°C° 0 mm 2 mps 770 mmHg 86%
    22:00 +2°C° 0 mm 2 mps 770 mmHg 86%
    23:00 +1°C° 0 mm 2 mps 770 mmHg 86%

    Day after tomorrow, 17 November, Saturday

    Time Temperature Precipitation Wind Pressure Humidity
    00:00 +1°C° 0 mm 2 mps 770 mmHg 86%
    01:00 +1°C° 0 mm 2 mps 770 mmHg 86%
    02:00 +1°C° 0 mm 2 mps 770 mmHg 86%
    03:00 -1°C° 0 mm 2 mps 770 mmHg 85%
    04:00 -1°C° 0 mm 2 mps 770 mmHg 85%
    05:00 -1°C° 0 mm 2 mps 770 mmHg 83%
    06:00 -1°C° 0 mm 2 mps 770 mmHg 82%
    07:00 -1°C° 0 mm 2 mps 770 mmHg 80%
    08:00 +1°C° 0 mm 2 mps 770 mmHg 73%
    09:00 +2°C° 0 mm 2 mps 770 mmHg 65%
    10:00 +3°C° 0 mm 2 mps 769 mmHg 58%
    11:00 +4°C° 0 mm 2 mps 769 mmHg 54%
    12:00 +5°C° 0 mm 1 mps 769 mmHg 50%
    13:00 +6°C° 0 mm 1 mps 768 mmHg 45%
    14:00 +5°C° 0 mm 1 mps 768 mmHg 49%
    15:00 +4°C° 0 mm 1 mps 768 mmHg 53%
    16:00 +3°C° 0 mm 1 mps 768 mmHg 57%
    17:00 +3°C° 0 mm 1 mps 767 mmHg 59%
    18:00 +1°C° 0 mm 0 mps 767 mmHg 61%
    19:00 +1°C° 0 mm 0 mps 767 mmHg 62%
    20:00 +2°C° 0 mm 1 mps 766 mmHg 63%
    21:00 +2°C° 0 mm 1 mps 766 mmHg 64%
    22:00 +2°C° 0 mm 1 mps 766 mmHg 65%
    23:00 +2°C° 0 mm 1 mps 765 mmHg 67%

    18 November, Sunday

    Time Temperature Precipitation Wind Pressure Humidity
    00:00 -1°C° 0 mm 2 mps 765 mmHg 69%
    01:00 -1°C° 0 mm 2 mps 764 mmHg 71%
    02:00 -1°C° 0 mm 2 mps 763 mmHg 73%
    03:00 -1°C° 0 mm 2 mps 763 mmHg 76%
    04:00 -1°C° 0 mm 3 mps 762 mmHg 78%
    05:00 -1°C° 0 mm 3 mps 761 mmHg 80%
    06:00 0°C° 0 mm 3 mps 761 mmHg 82%
    07:00 0°C° 0 mm 3 mps 760 mmHg 84%
    08:00 0°C° 0 mm 4 mps 760 mmHg 84%
    09:00 0°C° 0 mm 4 mps 759 mmHg 85%
    10:00 +1°C° 0 mm 4 mps 758 mmHg 85%
    11:00 +1°C° 0.1 mm 4 mps 758 mmHg 86%
    12:00 +3°C° 0.1 mm 4 mps 757 mmHg 86%
    13:00 +3°C° 0.1 mm 4 mps 757 mmHg 87%
    14:00 +3°C° 0.1 mm 4 mps 756 mmHg 86%
    15:00 +3°C° 0.1 mm 4 mps 756 mmHg 86%
    16:00 +1°C° 0.1 mm 4 mps 755 mmHg 85%
    17:00 +1°C° 0.1 mm 4 mps 755 mmHg 85%
    18:00 +1°C° 0.1 mm 4 mps 755 mmHg 86%
    19:00 +1°C° 0.1 mm 4 mps 754 mmHg 86%
    20:00 +1°C° 0.1 mm 5 mps 754 mmHg 85%
    21:00 +1°C° 0.1 mm 5 mps 754 mmHg 84%
    22:00 +1°C° 0.1 mm 5 mps 754 mmHg 83%
    23:00 +1°C° 0.1 mm 5 mps 753 mmHg 83%

    19 November, Monday

    Time Temperature Precipitation Wind Pressure Humidity
    00:00 +1°C° 0.1 mm 5 mps 753 mmHg 84%
    01:00 +1°C° 0.1 mm 4 mps 753 mmHg 84%
    02:00 +1°C° 0.2 mm 4 mps 752 mmHg 85%
    03:00 +2°C° 0.2 mm 5 mps 752 mmHg 85%
    04:00 +2°C° 0.2 mm 5 mps 752 mmHg 85%
    05:00 +2°C° 0.1 mm 5 mps 752 mmHg 85%
    06:00 +2°C° 0.1 mm 5 mps 752 mmHg 86%
    07:00 +1°C° 0.1 mm 5 mps 752 mmHg 87%
    08:00 +2°C° 0.1 mm 5 mps 752 mmHg 84%
    09:00 +2°C° 0.1 mm 5 mps 752 mmHg 81%
    10:00 +2°C° 0.1 mm 5 mps 752 mmHg 79%
    11:00 +2°C° 0.1 mm 5 mps 753 mmHg 77%
    12:00 +2°C° 0.1 mm 5 mps 753 mmHg 74%
    13:00 +3°C° 0.1 mm 5 mps 753 mmHg 72%
    14:00 +2°C° 0.1 mm 5 mps 753 mmHg 74%
    15:00 +2°C° 0.1 mm 5 mps 753 mmHg 75%
    16:00 +1°C° 0.1 mm 5 mps 753 mmHg 77%
    17:00 +1°C° 0.1 mm 5 mps 753 mmHg 78%
    18:00 +1°C° 0.1 mm 5 mps 753 mmHg 80%
    19:00 0°C° 0.1 mm 5 mps 754 mmHg 81%
    20:00 0°C° 0.1 mm 4 mps 754 mmHg 83%
    21:00 0°C° 0.1 mm 4 mps 754 mmHg 84%
    22:00 0°C° 0.1 mm 4 mps 754 mmHg 86%
    23:00 -1°C° 0.1 mm 4 mps 754 mmHg 86%

    20 November, Tuesday

    Time Temperature Precipitation Wind Pressure Humidity
    00:00 -1°C° 0.1 mm 4 mps 754 mmHg 86%
    01:00 -1°C° 0.1 mm 4 mps 754 mmHg 85%
    02:00 -1°C° 0.1 mm 4 mps 753 mmHg 86%
    03:00 -1°C° 0.1 mm 4 mps 753 mmHg 87%
    04:00 -1°C° 0.1 mm 4 mps 753 mmHg 87%
    05:00 -1°C° 0.1 mm 4 mps 753 mmHg 87%
    06:00 -1°C° 0.1 mm 4 mps 753 mmHg 87%
    07:00 -1°C° 0.1 mm 4 mps 753 mmHg 87%
    08:00 -1°C° 0.1 mm 4 mps 753 mmHg 86%
    09:00 -1°C° 0.1 mm 4 mps 753 mmHg 84%
    10:00 -1°C° 0.1 mm 4 mps 753 mmHg 83%
    11:00 -1°C° 0.1 mm 4 mps 753 mmHg 83%
    12:00 0°C° 0.1 mm 4 mps 753 mmHg 82%
    13:00 0°C° 0.1 mm 4 mps 752 mmHg 82%
    14:00 +1°C° 0 mm 3 mps 752 mmHg 83%
    15:00 0°C° 0 mm 3 mps 752 mmHg 85%
    16:00 0°C° 0 mm 3 mps 752 mmHg 87%
    17:00 0°C° 0 mm 3 mps 752 mmHg 87%
    18:00 0°C° 0 mm 3 mps 752 mmHg 88%
    19:00 0°C° 0 mm 3 mps 752 mmHg 89%
    20:00 0°C° 0 mm 3 mps 752 mmHg 89%
    21:00 0°C° 0 mm 3 mps 751 mmHg 90%
    22:00 0°C° 0 mm 3 mps 751 mmHg 90%
    23:00 -1°C° 0 mm 4 mps 751 mmHg 90%
    Show more